[[{"header":{"parameterUnit":"m.s-1","parameterCategory":1,"la1":30.2991,"la2":30.254,"lo1":-89.0895,"lo2":-89.0444,"dy":0.0017,"dx":0.0017,"nx":28,"ny":28,"refTime":"2023-11-22T09:00:00:Z","depth":0,"parameterNumber":2,"parameterNumberName":"U-component_of_WINDS"},"data":[0,0,0,0,0,0,0,0,0,0,0,0,0,0,0,0,0,0,0,0,0,0,0,0,0,0,0,0,0,0,0,0,0,0,0,0,0,0,0,0,0,0,0,0,0,0,0,0,0,0,0,0,0,0,0,0,0,0,-1.2817,-1.2817,0,-1.2826,-1.2826,-1.2826,-1.2782,-1.2781,-1.2779,-1.2778,-1.2789,-1.279,-1.2792,0,0,0,0,0,0,0,0,0,0,0,0,0,-1.276,-1.2762,-1.2817,-1.2817,-1.2817,-1.2826,-1.2826,-1.2826,-1.2782,-1.2781,-1.2779,-1.2778,-1.2788,-1.279,-1.2792,0,0,0,0,0,0,0,0,0,0,0,0,0,-1.2779,-1.2762,-1.2817,-1.2796,-1.2794,-1.2826,-1.2826,-1.2826,-1.2783,-1.2781,-1.2779,-1.2777,-1.2788,-1.279,-1.2792,-1.2845,0,0,-1.2799,-1.28,0,0,0,0,0,0,0,0,-1.2778,-1.2781,-1.2799,-1.2797,-1.2795,-1.2801,-1.281,-1.2833,-1.2783,-1.2787,-1.2778,-1.2776,-1.2794,-1.2796,-1.2802,-1.2845,-1.2846,-1.2799,-1.2801,-1.2801,-1.2802,0,0,0,0,0,0,0,-1.2777,-1.278,-1.282,-1.2799,-1.2797,-1.2786,-1.2787,-1.2814,-1.2802,-1.2786,-1.2783,-1.2785,-1.2793,-1.28,-1.2802,-1.2846,-1.2799,-1.2801,-1.2802,-1.2803,-1.2931,-1.2933,0,0,0,0,0,0,-1.2778,-1.2779,-1.282,-1.2821,-1.2782,-1.2789,-1.2789,-1.2801,-1.2801,-1.2799,-1.2787,-1.2783,-1.2797,-1.2799,-1.2802,-1.2863,-1.2801,-1.2804,-1.2805,-1.2929,-1.2932,-1.2934,0,0,0,0,0,0,-1.2777,-1.2782,-1.282,-1.2799,-1.2803,-1.2792,-1.2805,-1.2802,-1.2809,-1.2801,-1.2799,-1.2796,-1.2796,-1.2799,-1.2834,-1.2863,-1.2805,-1.2807,-1.2927,-1.293,-1.2933,-1.2985,0,0,0,0,0,0,-1.2776,-1.2782,-1.2802,-1.28,-1.2804,-1.2852,-1.2807,-1.2804,-1.2813,-1.2808,-1.2809,-1.2808,-1.2794,-1.2831,-1.2836,-1.2865,-1.2808,-1.2924,-1.2928,-1.2932,-1.2981,-1.2989,-1.2997,0,0,0,0,0,-1.2774,-1.2817,-1.2803,-1.2808,-1.2829,-1.2853,-1.2856,-1.284,-1.2815,-1.2835,-1.283,-1.2808,-1.2859,-1.2835,-1.2841,-1.287,-1.2922,-1.2927,-1.2931,-1.2977,-1.2988,-1.2997,0,0,0,0,0,0,-1.2823,-1.2816,-1.2801,-1.2845,-1.285,-1.2846,-1.287,-1.2852,-1.2864,-1.2859,-1.2839,-1.2839,-1.2878,-1.2877,-1.2851,-1.292,-1.2886,-1.2892,-1.2919,-1.2929,-1.2937,-1.2936,-1.281,0,0,0,0,0,-1.2839,-1.2859,-1.2852,-1.2891,-1.2895,-1.2882,-1.2892,-1.2879,-1.2884,-1.2886,-1.2883,-1.2889,-1.2905,-1.2917,-1.2933,-1.298,-1.298,-1.3003,-1.3011,-1.3018,-1.3024,-1.3048,-1.3058,-1.2949,-1.2949,-1.2949,0,0,-1.2872,-1.2871,-1.2885,-1.2901,-1.2904,-1.2925,-1.2884,-1.2909,-1.2924,-1.2889,-1.2922,-1.292,-1.2925,-1.2966,-1.2984,-1.2967,-1.3053,-1.3024,-1.303,-1.3031,-1.3053,-1.3064,-1.3073,-1.2952,-1.2952,-1.2951,0,0,-1.2943,-1.2945,-1.2977,-1.298,-1.2984,-1.2975,-1.2983,-1.2981,-1.2978,-1.3011,-1.2985,-1.3003,-1.3033,-1.3037,-1.3043,-1.3115,-1.3094,-1.312,-1.3163,-1.3187,-1.3195,-1.3203,-1.3227,-1.3236,-1.3126,-1.3126,-1.3126,0,-1.2984,-1.3015,-1.2996,-1.3022,-1.3029,-1.2998,-1.303,-1.3034,-1.3043,-1.3049,-1.303,-1.3066,-1.3067,-1.3108,-1.3126,-1.3132,-1.314,-1.312,-1.3195,-1.3203,-1.3209,-1.3233,-1.3242,-1.3129,-1.3128,-1.3128,-1.3128,0,-1.3064,-1.3086,-1.3112,-1.312,-1.313,-1.3159,-1.3145,-1.3158,-1.3143,-1.3137,-1.3169,-1.3169,-1.3184,-1.3193,-1.3179,-1.3232,-1.3221,-1.3199,-1.3164,-1.3223,-1.3245,-1.3253,-1.3133,-1.3132,-1.3131,-1.313,0,0,-1.3168,-1.3164,-1.3174,-1.3177,-1.3178,-1.3195,-1.3222,-1.3235,-1.3246,-1.3253,-1.3275,-1.3301,-1.328,-1.3287,-1.3274,-1.3295,-1.335,-1.327,-1.327,-1.3284,-1.3407,-1.3423,-1.3433,-1.3336,-1.3338,-1.3339,-1.3406,0,-1.3237,-1.3282,-1.3266,-1.3313,-1.3332,-1.3302,-1.3325,-1.3329,-1.3323,-1.3338,-1.3332,-1.335,-1.3322,-1.3326,-1.3345,-1.3339,-1.3374,-1.3334,-1.3356,-1.3357,-1.3356,-1.3445,-1.3462,-1.3525,-1.3414,-1.3416,-1.3417,0,-1.3323,-1.3333,-1.3381,-1.3378,-1.3386,-1.3407,-1.3417,-1.3432,-1.3435,-1.343,-1.3437,-1.3419,-1.3445,-1.341,-1.3446,-1.3419,-1.3427,-1.3425,-1.3427,-1.3429,-1.339,-1.3448,-1.3545,-1.3554,-1.343,-1.3429,-1.3428,0,-1.3393,-1.3418,-1.345,-1.3453,-1.3451,-1.3466,-1.3466,-1.3467,-1.3475,-1.3484,-1.349,-1.3502,-1.3509,-1.3519,-1.3504,-1.3481,-1.3542,-1.3506,-1.3537,-1.3538,-1.3551,-1.355,-1.365,-1.3557,-1.3557,-1.3557,-1.3557,0,-1.3471,-1.3502,-1.348,-1.35,-1.3533,-1.3514,-1.3547,-1.3544,-1.3544,-1.3563,-1.3538,-1.3556,-1.3536,-1.3552,-1.3541,-1.3571,-1.3575,-1.357,-1.3567,-1.3572,-1.3573,-1.3577,-1.3572,-1.356,-1.3559,-1.3559,-1.3558,0,-1.3555,-1.3541,-1.3574,-1.3568,-1.3568,-1.3592,-1.3587,-1.3605,-1.3597,-1.362,-1.3625,-1.3613,-1.363,-1.3616,-1.3634,-1.3626,-1.3666,-1.3657,-1.3665,-1.3662,-1.3694,-1.3691,-1.3799,-1.3812,-1.3712,-1.3713,-1.3713,0,-1.3605,-1.3628,-1.3624,-1.3634,-1.3635,-1.3652,-1.366,-1.3642,-1.3652,-1.3656,-1.3673,-1.3688,-1.3699,-1.3727,-1.372,-1.3733,-1.3723,-1.3761,-1.3725,-1.3729,-1.3723,-1.3722,-1.3723,-1.3768,-1.3769,-1.377,-1.3771,0,-1.3697,-1.3689,-1.3701,-1.3712,-1.3722,-1.3729,-1.3735,-1.3745,-1.3725,-1.3738,-1.3754,-1.3763,-1.3779,-1.3794,-1.3804,-1.3804,-1.3784,-1.3782,-1.3789,-1.3795,-1.3798,-1.3796,-1.3684,-1.3779,-1.3779,-1.3778,-1.3777,-1.3777,-1.3765,-1.3783,-1.3783,-1.3797,-1.3799,-1.3805,-1.3821,-1.3814,-1.3828,-1.3839,-1.3827,-1.3848,-1.3849,-1.386,-1.3862,-1.3877,-1.3862,-1.3873,-1.3876,-1.3879,-1.3883,-1.3796,-1.3879,-1.3879,-1.3879,-1.3879,-1.3878,0,-1.3854,-1.3852,-1.3866,-1.3873,-1.3885,-1.3864,-1.3869,-1.388,-1.3898,-1.39,-1.3911,-1.393,-1.3944,-1.3937,-1.3949,-1.3963,-1.3954,-1.3967,-1.3965,-1.3965,-1.3897,-1.3888,-1.3974,-1.3974,-1.3974,-1.3974,-1.3974,-1.3974,-1.3902,-1.3931,-1.3923,-1.3953,-1.3951,-1.397,-1.3974,-1.3978,-1.398,-1.4002,-1.4013,-1.4008,-1.4007,-1.4019,-1.4031,-1.4028,-1.4034,-1.405,-1.4044,-1.398,-1.397,-1.3962,-1.3954,-1.4051,-1.4051,-1.4111,-1.4112,-1.4112]},{"header":{"parameterUnit":"m.s-1","parameterCategory":1,"la1":30.2991,"la2":30.254,"lo1":-89.0895,"lo2":-89.0444,"dy":0.0017,"dx":0.0017,"nx":28,"ny":28,"refTime":"2023-11-22T09:00:00:Z","depth":0,"parameterNumber":3,"parameterNumberName":"V-component_of_WINDS"},"data":[0,0,0,0,0,0,0,0,0,0,0,0,0,0,0,0,0,0,0,0,0,0,0,0,0,0,0,0,0,0,0,0,0,0,0,0,0,0,0,0,0,0,0,0,0,0,0,0,0,0,0,0,0,0,0,0,0,0,-0.2624,-0.2624,0,-0.2667,-0.2667,-0.2668,-0.2669,-0.2668,-0.2667,-0.2667,-0.2713,-0.2714,-0.2716,0,0,0,0,0,0,0,0,0,0,0,0,0,-0.2544,-0.2545,-0.2624,-0.2624,-0.2625,-0.2666,-0.2667,-0.2668,-0.2669,-0.2668,-0.2667,-0.2667,-0.2712,-0.2714,-0.2716,0,0,0,0,0,0,0,0,0,0,0,0,0,-0.2582,-0.2546,-0.2624,-0.263,-0.2631,-0.2666,-0.2667,-0.2668,-0.2669,-0.2668,-0.2667,-0.2666,-0.2711,-0.2714,-0.2716,-0.2748,0,0,-0.2724,-0.2725,0,0,0,0,0,0,0,0,-0.258,-0.2585,-0.2629,-0.263,-0.2631,-0.2661,-0.2656,-0.2695,-0.2669,-0.2655,-0.2667,-0.2666,-0.2696,-0.27,-0.271,-0.275,-0.2752,-0.2724,-0.2726,-0.2727,-0.2728,0,0,0,0,0,0,0,-0.2577,-0.2583,-0.2641,-0.2629,-0.2631,-0.2631,-0.2636,-0.2663,-0.2679,-0.2656,-0.2656,-0.2661,-0.2697,-0.2707,-0.2711,-0.2753,-0.2724,-0.2727,-0.2728,-0.2729,-0.2821,-0.2822,0,0,0,0,0,0,-0.2573,-0.2581,-0.2639,-0.2642,-0.2603,-0.2634,-0.2639,-0.2652,-0.2679,-0.2682,-0.2662,-0.2661,-0.2703,-0.2708,-0.2713,-0.2751,-0.2727,-0.2729,-0.2731,-0.282,-0.2822,-0.2823,0,0,0,0,0,0,-0.2571,-0.2578,-0.2638,-0.2611,-0.2619,-0.2636,-0.2651,-0.2654,-0.2664,-0.2683,-0.2687,-0.2669,-0.2703,-0.2709,-0.2739,-0.2753,-0.2731,-0.2733,-0.2819,-0.2821,-0.2822,-0.2829,0,0,0,0,0,0,-0.2569,-0.2578,-0.259,-0.2612,-0.262,-0.2663,-0.2652,-0.2655,-0.2669,-0.2668,-0.2692,-0.2695,-0.2703,-0.2735,-0.2742,-0.2756,-0.2735,-0.2818,-0.282,-0.2822,-0.2828,-0.2831,-0.2833,0,0,0,0,0,-0.2566,-0.259,-0.259,-0.2597,-0.2636,-0.2664,-0.2669,-0.2677,-0.267,-0.2682,-0.2694,-0.2694,-0.275,-0.2738,-0.2746,-0.2761,-0.2817,-0.282,-0.2822,-0.2827,-0.283,-0.2833,0,0,0,0,0,0,-0.257,-0.2593,-0.2593,-0.2625,-0.2643,-0.2664,-0.268,-0.2681,-0.2701,-0.2699,-0.2709,-0.2715,-0.2745,-0.2756,-0.2742,-0.2793,-0.2783,-0.2787,-0.2784,-0.2788,-0.2791,-0.2787,-0.2737,0,0,0,0,0,-0.2574,-0.2595,-0.2614,-0.2641,-0.2649,-0.2663,-0.2676,-0.268,-0.2699,-0.2706,-0.2721,-0.2739,-0.2761,-0.2775,-0.2796,-0.2829,-0.2835,-0.2844,-0.2846,-0.2848,-0.2851,-0.287,-0.2874,-0.2829,-0.2829,-0.2829,0,0,-0.2584,-0.2599,-0.2612,-0.2642,-0.2656,-0.2677,-0.2669,-0.2692,-0.2708,-0.271,-0.2739,-0.275,-0.2771,-0.2803,-0.2818,-0.2813,-0.2865,-0.2851,-0.2852,-0.2854,-0.2872,-0.2876,-0.288,-0.2831,-0.283,-0.283,0,0,-0.2612,-0.2626,-0.2649,-0.2663,-0.2684,-0.2693,-0.2699,-0.272,-0.2727,-0.2756,-0.2758,-0.2778,-0.2815,-0.283,-0.2842,-0.2876,-0.2876,-0.2882,-0.2896,-0.2914,-0.2917,-0.292,-0.2932,-0.2936,-0.2885,-0.2885,-0.2885,0,-0.2622,-0.2654,-0.2661,-0.2684,-0.2697,-0.2699,-0.2723,-0.2736,-0.2763,-0.2772,-0.2767,-0.2814,-0.2828,-0.2863,-0.2871,-0.2881,-0.2888,-0.288,-0.2916,-0.2919,-0.2922,-0.2934,-0.2938,-0.2886,-0.2886,-0.2886,-0.2886,0,-0.2664,-0.2686,-0.2702,-0.2728,-0.2743,-0.2766,-0.2777,-0.2792,-0.2795,-0.2805,-0.2835,-0.2852,-0.2876,-0.2885,-0.2889,-0.2921,-0.2917,-0.2914,-0.2904,-0.2927,-0.2938,-0.2942,-0.2887,-0.2887,-0.2886,-0.2886,0,0,-0.2696,-0.2725,-0.2731,-0.2742,-0.2765,-0.2782,-0.2806,-0.2829,-0.2841,-0.286,-0.288,-0.2911,-0.2908,-0.2922,-0.2928,-0.2943,-0.2968,-0.2938,-0.2938,-0.2943,-0.3004,-0.3007,-0.3011,-0.2969,-0.297,-0.297,-0.3002,0,-0.2727,-0.2768,-0.2775,-0.2811,-0.2831,-0.2833,-0.2854,-0.287,-0.288,-0.2899,-0.291,-0.2932,-0.2926,-0.2934,-0.295,-0.2962,-0.2981,-0.296,-0.2988,-0.2989,-0.2982,-0.3017,-0.302,-0.3049,-0.3007,-0.3007,-0.3008,0,-0.2768,-0.2787,-0.2824,-0.2844,-0.2853,-0.2871,-0.2893,-0.2911,-0.293,-0.2936,-0.2951,-0.2955,-0.298,-0.2969,-0.3003,-0.2988,-0.3,-0.3008,-0.3009,-0.3012,-0.3,-0.3021,-0.3059,-0.3063,-0.3015,-0.3014,-0.3014,0,-0.2787,-0.2822,-0.2849,-0.2859,-0.2883,-0.2895,-0.2906,-0.2924,-0.2937,-0.2957,-0.2965,-0.2988,-0.3,-0.3017,-0.3027,-0.3018,-0.306,-0.305,-0.3066,-0.3066,-0.3075,-0.3074,-0.3115,-0.3083,-0.3083,-0.3083,-0.3083,0,-0.282,-0.2843,-0.2858,-0.2874,-0.29,-0.2909,-0.2934,-0.2945,-0.2961,-0.2979,-0.2983,-0.3001,-0.3013,-0.3032,-0.304,-0.3067,-0.3073,-0.3078,-0.308,-0.3078,-0.3077,-0.3086,-0.3084,-0.3084,-0.3084,-0.3083,-0.3083,0,-0.2846,-0.2857,-0.2886,-0.2906,-0.2912,-0.293,-0.2947,-0.2964,-0.2973,-0.2997,-0.3003,-0.3018,-0.3041,-0.3053,-0.3082,-0.3087,-0.3118,-0.3118,-0.3111,-0.3112,-0.3127,-0.3126,-0.3175,-0.3182,-0.3145,-0.3145,-0.3146,0,-0.2867,-0.2884,-0.2906,-0.2919,-0.2929,-0.295,-0.2963,-0.2973,-0.2987,-0.3009,-0.3023,-0.3046,-0.3065,-0.3102,-0.3116,-0.3138,-0.3139,-0.3155,-0.3143,-0.314,-0.314,-0.3138,-0.314,-0.3157,-0.3158,-0.3158,-0.3158,0,-0.2902,-0.2906,-0.2925,-0.2946,-0.2962,-0.2979,-0.2996,-0.3006,-0.3018,-0.3034,-0.3057,-0.3072,-0.3101,-0.3124,-0.3148,-0.3159,-0.3161,-0.3162,-0.3167,-0.3165,-0.316,-0.3163,-0.3117,-0.3161,-0.3161,-0.316,-0.316,-0.316,-0.2926,-0.2941,-0.2959,-0.298,-0.2993,-0.3009,-0.3025,-0.3036,-0.3056,-0.308,-0.3084,-0.3109,-0.3128,-0.3159,-0.3171,-0.3191,-0.3188,-0.3195,-0.3196,-0.3198,-0.3199,-0.3157,-0.3195,-0.3195,-0.3195,-0.3195,-0.3195,0,-0.2961,-0.2972,-0.2991,-0.3014,-0.3031,-0.3031,-0.3049,-0.3063,-0.3085,-0.3102,-0.312,-0.3147,-0.3169,-0.3185,-0.3208,-0.3221,-0.3222,-0.3226,-0.3225,-0.3228,-0.3201,-0.3194,-0.3225,-0.3225,-0.3225,-0.3225,-0.3225,-0.3225,-0.2981,-0.3007,-0.3013,-0.3046,-0.3058,-0.3081,-0.3092,-0.3107,-0.312,-0.315,-0.3168,-0.3178,-0.3194,-0.3218,-0.3239,-0.3243,-0.3251,-0.3255,-0.3259,-0.3233,-0.323,-0.3227,-0.3221,-0.3257,-0.3257,-0.3285,-0.3285,-0.3286]}]]